Regional Weather Roundup
Issued by NWS

Home | Current Version | Previous Version | Graphics & Text | Print | Product List | Glossary On
Versions: 1 2 3 4 5 6 7 8 9 10 11 12 13 14 15 16 17 18 19 20 21 22 23 24 25 26 27 28 29 30 31 32 33 34 35 36 37 38 39 40 41 42 43 44 45 46 47 48 49 50
000
ASUS45 KTFX 021510
RWRMT
MONTANA REGIONAL WEATHER ROUNDUP
NATIONAL WEATHER SERVICE GREAT FALLS MT
900 AM MDT SUN AUG 02 2015

NOTE: "FAIR" INDICATES FEW OR NO CLOUDS BELOW 12000 FEET WITH NO
SIGNIFICANT WEATHER AND/OR OBSTRUCTIONS TO VISIBILITY.

MTZ001>007-043-021600-
WEST OF THE DIVIDE

CITY           SKY/WX    TMP DP  RH WIND       PRES   REMARKS
KALISPELL      SUNNY     70  44  39 NE8       30.01R
MISSOULA       MOSUNNY   60  42  51 CALM      30.08R
BUTTE          SUNNY     58  34  40 CALM      30.19R
MULLAN PASS    MOSUNNY   71  20  14 CALM      30.18R
DEER LODGE       N/A     63  43  48 CALM      30.17R
EUREKA           N/A     68  37  32 SW3       30.02S
HAMILTON         N/A     66  39  37 S7        30.07S
LIBBY            N/A     63  34  34 CALM      30.02S
RONAN            N/A     70  52  52 CALM      30.05R
$$

MTZ008-052>055-021600-
SOUTHWEST MONTANA

CITY           SKY/WX    TMP DP  RH WIND       PRES   REMARKS
BOZEMAN        SUNNY     68  48  48 E3        30.11R
DILLON         SUNNY     61  44  53 SW6       30.15S
W YELLOWSTONE  SUNNY     54  37  54 CALM      30.27R
THREE FORKS      N/A     63  24  22 CALM      30.09R
TWIN BRIDGES     N/A     59  42  53 S3        30.12R
$$

MTZ009-010-012-014-046-048-049-054-021600-
EAST SLOPES AND CENTRAL MONTANA

CITY           SKY/WX    TMP DP  RH WIND       PRES   REMARKS
CUT BANK       SUNNY     62  50  64 SE5       30.12S
GREAT FALLS    SUNNY     63  52  67 W10       30.10R
MALMSTROM AFB  MOSUNNY   62  53  72 W10       30.10R
HELENA         MOSUNNY   72  44  36 VRB3      30.10R
$$

MTZ011-013-016-021-045-047-050-051-021600-
NORTH CENTRAL MONTANA

CITY           SKY/WX    TMP DP  RH WIND       PRES   REMARKS
HAVRE          SUNNY     69  54  58 E15       30.06S
LEWISTOWN      SUNNY     67  52  58 E15       30.10R
CHINOOK          N/A     70  55  60 E6        30.06F
FORT BENTON      N/A     66  46  48 CALM      30.09R
$$

MTZ017>020-022>027-061-062-021600-
NORTHEAST MONTANA

CITY           SKY/WX    TMP DP  RH WIND       PRES   REMARKS
GLASGOW        SUNNY     69  52  54 NE7       30.04S
JORDAN           N/A     70  50  49 NE13      30.04S
SIDNEY         SUNNY    N/A N/A N/A NW9       30.01S
WOLF POINT     SUNNY     71  54  54 NE9       30.04S
MALTA            N/A     68  54  60 NE1       30.02S
PLENTYWOOD       N/A     66  55  68 N9G16     30.02R
POPLAR           N/A     68  54  60 N7        30.03F
$$

MTZ028>42-056>058-021600-
SOUTHCENTRAL AND SOUTHEAST MONTANA

CITY           SKY/WX    TMP DP  RH WIND       PRES   REMARKS
BAKER          SUNNY     72  52  49 NE10      30.04R
BILLINGS       MOSUNNY   70  50  49 N9        30.06R
LIVINGSTON     SUNNY     68  42  38 NW9       30.10R
MILES CITY     SUNNY     71  53  52 NE13      30.01R
FORSYTH          N/A     72  52  49 E13       30.01R
LAUREL           N/A     70  41  34 NW1       30.04R
ROUNDUP          N/A     68  47  46 N8        29.98R
$$

REGIONAL REPORTS...DAKOTAS

CITY           SKY/WX    TMP DP  RH WIND       PRES   REMARKS
WILLISTON      SUNNY     70  53  54 N10       30.00R
MINOT          SUNNY     68  55  63 NW14      29.93R
DICKINSON      SUNNY     70  53  54 N9        30.00R
CROSBY         FAIR      63  59  88 N9        30.00R
BISMARCK       SUNNY     71  55  56 N8        29.93R
GRAND FORKS    MOSUNNY   70  58  65 NW14      29.79R
FARGO          MOSUNNY   72  61  68 NW13      29.78R
BUFFALO SD       N/A     71  50  47 NE14      29.95R
RAPID CITY     SUNNY     72  51  47 N10       30.00R
$$

REGIONAL REPORTS...WYOMING/IDAHO/WASHINGTON

CITY           SKY/WX    TMP DP  RH WIND       PRES   REMARKS
GILLETTE       MOSUNNY   79  40  24 NE7       30.03R
SHERIDAN       SUNNY     72  48  42 SE5       30.02R
BUFFALO WY     MOSUNNY   82  45  27 CALM      30.07S
CODY           SUNNY     73  43  33 CALM      30.12R
YELLOWSTONE LA   N/A     57  46  66 E3        30.36R
IDAHO FALLS    SUNNY     63  46  54 N10       30.09R
SALMON         MOSUNNY   59  45  58 CALM      30.11R
BOISE          SUNNY     77  40  26 SE5       29.93R
SPOKANE        PTSUNNY   69  36  29 NE6       29.94R
$$

REGIONAL REPORTS...ALBERTA

CITY           SKY/WX    TMP DP  RH WIND       PRES   REMARKS
EDMONTON       SUNNY     66  54  63 S6        30.02F
CALGARY        MOSUNNY   66  50  55 S18       30.07F
LETHBRIDGE     MOSUNNY   64  52  63 VRB2      30.09S
MEDICINE HAT   MOSUNNY   70  52  52 CALM      30.07R
WATERTON GATE    N/A     61  50  67 SW6         N/A
MILK RIVER       N/A     63  50  63 W3          N/A
ONEFOUR          N/A     66  50  55 E8          N/A
$$

REGIONAL REPORTS...SASKATCHEWAN

CITY           SKY/WX    TMP DP  RH WIND       PRES   REMARKS
SWIFT CURRENT  CLOUDY    61  54  77 NW5       30.07R
REGINA         MOSUNNY   64  55  72 N9        30.02R
SASKATOON      SUNNY     63  55  77 NW5       30.04S
CYPRESS HILLS    N/A     64  46  52 NE3         N/A
VAL MARIE        N/A     66  55  68 NE7         N/A
ROCKGLEN         N/A     63  52  67 N10         N/A
ASSINIBOIA       N/A     64  55  72 SE2         N/A
$$


USA.gov is the U.S. government's official web portal to all federal, state and local government web resources and services.